Regional Weather Roundup
Issued by NWS Little Rock, AR

Home | Current Version | Previous Version | Graphics & Text | Print | Product List | Glossary On
Versions: 1 2 3 4 5 6 7 8 9 10 11 12 13 14 15 16 17 18 19 20 21 22 23 24 25 26 27 28 29 30 31 32
000
ASUS44 KLZK 280005
RWRLZK

WEATHER ROUNDUP FOR ARKANSAS
NATIONAL WEATHER SERVICE LITTLE ROCK AR
700 PM CDT MON MAR 27 2017

NOTE: "FAIR" INDICATES FEW OR NO CLOUDS BELOW 12,000 FEET WITH NO
SIGNIFICANT WEATHER AND/OR OBSTRUCTIONS TO VISIBILITY.

ARZ001-003-010-029-280100-
NORTHWEST ARKANSAS

CITY           SKY/WX    TMP DP  RH WIND       PRES   REMARKS
FAYETTEVILLE   CLOUDY    53  50  89 NW7       29.92R
6HR MIN TEMP:  53; 6HR MAX TEMP:  58;

FORT SMITH     CLOUDY    61  50  67 NW9       29.90R
6HR MIN TEMP:  61; 6HR MAX TEMP:  66;

HARRISON       PTCLDY    58  52  80 NW8       29.89R
6HR MIN TEMP:  58; 6HR MAX TEMP:  67;

BENTONVILLE    CLOUDY    54  48  82 CALM      29.93R
6HR MIN TEMP:  54; 6HR MAX TEMP:  57;

ROGERS         CLOUDY    53  50  89 NW5       29.93R
6HR MIN TEMP:  53; 6HR MAX TEMP:  58;

SILOAM SPGS    CLOUDY    54  46  76 N8        29.92S
6HR MIN TEMP:  54; 6HR MAX TEMP:  57;

HIGHFILL       CLOUDY    54  50  86 N8        29.91S
6HR MIN TEMP:  54; 6HR MAX TEMP:  57;

$$

ARZ004-005-016-280100-
NORTH CENTRAL ARKANSAS

CITY           SKY/WX    TMP DP  RH WIND       PRES   REMARKS
BATESVILLE     CLEAR     70  55  60 NW6       29.83R
6HR MIN TEMP:  63; 6HR MAX TEMP:  79;

FLIPPIN        PTCLDY    64  48  55 NW9G17    29.84R
6HR MIN TEMP:  63; 6HR MAX TEMP:  70;

MTN HOME       CLEAR     64  52  64 VRB6G17   29.85
6HR MIN TEMP:  62; 6HR MAX TEMP:  70;

$$

ARZ040-041-280100-
WEST CENTRAL ARKANSAS

CITY           SKY/WX    TMP DP  RH WIND       PRES   REMARKS
MENA           CLEAR     64  57  77 N6        29.89R
MOUNT IDA      CLEAR     67  54  63 N3        29.85R
6HR MIN TEMP:  67; 6HR MAX TEMP:  80;

$$

ARZ009-017-025-026-028-280100-
NORTHEAST ARKANSAS

CITY           SKY/WX    TMP DP  RH WIND       PRES   REMARKS
CORNING        FAIR      68  59  73 NW7       29.82R
JONESBORO      CLEAR     69  57  65 NW8       29.81R
6HR MIN TEMP:  66; 6HR MAX TEMP:  72; 6HR PCP:  0.10;

NEWPORT        CLEAR     68  59  73 MISG      29.82R
6HR MIN TEMP:  64; 6HR MAX TEMP:  77;

WALNUT RIDGE   CLEAR     68  55  64 CALM      29.82R
6HR MIN TEMP:  59; 6HR MAX TEMP:  73;

BLYTHEVILLE    PTCLDY    64  61  90 NE6       29.82R
6HR MIN TEMP:  57; 6HR MAX TEMP:  69;

$$

ARZ022-023-033-042-044-280100-
CENTRAL ARKANSAS

CITY           SKY/WX    TMP DP  RH WIND       PRES   REMARKS
LITTLE ROCK    PTCLDY    72  57  59 NW16      29.82R
6HR MIN TEMP:  72; 6HR MAX TEMP:  81;

N LITTLE ROCK    N/A     71  56  60 NW8G16    29.82R
6HR MIN TEMP:  71; 6HR MAX TEMP:  80;

JACKSONVILLE   CLEAR     74  55  51 W10       29.81R
6HR MIN TEMP:  74; 6HR MAX TEMP:  82;

CONWAY           N/A     72  59  64 NW12      29.81R
SEARCY         CLEAR     75  54  47 W6        29.82R
6HR MIN TEMP:  74; 6HR MAX TEMP:  81;

HOT SPRINGS    CLEAR     71  56  58 NW8       29.85R
6HR MIN TEMP:  71; 6HR MAX TEMP:  81;

RUSSELLVILLE   CLEAR     66  53  63 SW9       29.85R
6HR MIN TEMP:  66; 6HR MAX TEMP:  74;

CLINTON        MOCLDY    72  55  56 NW6G12    29.83R
$$

ARZ036-280100-
EAST ARKANSAS

CITY           SKY/WX    TMP DP  RH WIND       PRES   REMARKS
WEST MEMPHIS   MOCLDY    72  65  78 VRB5G16   29.79R
6HR MIN TEMP:  72; 6HR MAX TEMP:  80;

$$

ARZ050-053-066-070-073-280100-
SOUTHWEST ARKANSAS

CITY           SKY/WX    TMP DP  RH WIND       PRES   REMARKS
ARKADELPHIA    FAIR      75  58  55 W8        29.83R
6HR MIN TEMP:  74; 6HR MAX TEMP:  80;

CAMDEN         PTCLDY    77  59  53 SW6       29.81S
TEXARKANA      CLEAR     72  60  66 NW9       29.84R
6HR MIN TEMP:  72; 6HR MAX TEMP:  80;

EL DORADO      CLEAR     77  63  61 SW3       29.83R
6HR MIN TEMP:  73; 6HR MAX TEMP:  81; 6HR PCP: TRACE;

DE QUEEN       CLEAR     71  56  58 NW6       29.84R
6HR MIN TEMP:  71; 6HR MAX TEMP:  75;

$$

ARZ056-057-069-280100-
SOUTHEAST ARKANSAS

CITY           SKY/WX    TMP DP  RH WIND       PRES   REMARKS
PINE BLUFF     CLEAR     78  60  53 W10       29.81R
6HR MIN TEMP:  78; 6HR MAX TEMP:  81;

STUTTGART      PTCLDY    77  57  50 SW8       29.81R
6HR MIN TEMP:  75; 6HR MAX TEMP:  81;

MONTICELLO     CLEAR     80  61  52 SW8       29.81R

$$






USA.gov is the U.S. government's official web portal to all federal, state and local government web resources and services.